Zurück zum Katalog

STARLINK-3346

AktivKommunikationVLEO
NORAD 50821·PAYLOAD·🇺🇸 United States

Gestartet Jan 6, 2022 von Cape Canaveral Space Force Station

Loading…

Nächste Überflüge (nächste 24 Stunden)

TLE

AktuellSource: CelesTrak SupGP

Epoche: Sep 14, 2026, 12:55 UTC

1 50821C 22001U   26257.53868056 -.00029261  00000+0 -94096-3 0  2573
2 50821  53.1603  31.5558 0001162  87.6038  44.4233 15.31716932    14

Verfolge STARLINK-3346 in Echtzeit mit AllMySat

Download on the App Store